This is the latest recevied weather packets stored in our database for station/object HB9BTL-13. If no packets are shown the sender has not sent any weather packets the latest 10 day(s).
| Time | Temp. | Humidity | Pressure | Rain* | Wind** | Luminosity | Snow |
|---|---|---|---|---|---|---|---|
| 1777815245 | 24.44° C | 38% | 1013.4 hPa | - | - | - | - |
| 1777814339 | 23.89° C | 41% | 1013.4 hPa | - | - | - | - |
| 1777813434 | 23.89° C | 43% | 1013.6 hPa | - | - | - | - |
| 1777812528 | 23.89° C | 43% | 1013.8 hPa | - | - | - | - |
| 1777811623 | 23.33° C | 43% | 1013.9 hPa | - | - | - | - |
| 1777810717 | 23.33° C | 46% | 1014.1 hPa | - | - | - | - |
| 1777809812 | 22.78° C | 45% | 1014.2 hPa | - | - | - | - |
| 1777808906 | 22.78° C | 45% | 1014.3 hPa | - | - | - | - |
| 1777808001 | 22.78° C | 45% | 1014.3 hPa | - | - | - | - |
| 1777807096 | 22.22° C | 50% | 1014.3 hPa | - | - | - | - |
| 1777806190 | 21.11° C | 52% | 1014.5 hPa | - | - | - | - |
| 1777805286 | 21.11° C | 53% | 1015 hPa | - | - | - | - |
| 1777804380 | 21.11° C | 52% | 1015.2 hPa | - | - | - | - |
| 1777803475 | 20.56° C | 54% | 1015.5 hPa | - | - | - | - |
| 1777802569 | 20.56° C | 55% | 1015.7 hPa | - | - | - | - |
| 1777801664 | 20.56° C | 55% | 1015.9 hPa | - | - | - | - |
| 1777800758 | 20.56° C | 59% | 1016.1 hPa | - | - | - | - |
| 1777799853 | 20° C | 58% | 1016.1 hPa | - | - | - | - |
| 1777798947 | 19.44° C | 60% | 1016.2 hPa | - | - | - | - |
| 1777798042 | 19.44° C | 62% | 1016.3 hPa | - | - | - | - |
| 1777797136 | 18.89° C | 66% | 1016.4 hPa | - | - | - | - |
| 1777796231 | 18.89° C | 69% | 1016.7 hPa | - | - | - | - |
| 1777795326 | 18.33° C | 70% | 1016.8 hPa | - | - | - | - |
| 1777794420 | 17.78° C | 71% | 1016.9 hPa | - | - | - | - |
| 1777793515 | 17.78° C | 73% | 1016.9 hPa | - | - | - | - |
* Rain since midnight (hover to see other rain measurements)
** Current wind speed in m/s (hover to see current wind gust speed)